Tracking 18840 objects as of 19-November-2017
HD Live streaming from Space Station
objects crossing your sky now

FLOCK 2K 34

Track FLOCK 2K 34 now!
10-day predictions
FLOCK 2K 34 is classified as:


NORAD ID: 42878
Int'l Code: 2017-042BF
Perigee: 459.5 km
Apogee: 478.5 km
Inclination: 97.0 °
Period: 93.8 minutes
Semi major axis: 6839 km
RCS: Unknown
Launch date: July 14, 2017
Source: United States (US)
Launch site: TYURATAM MISSILE AND SPACE COMPLEX (TTMTR)
aabbcc
Your satellite tracking list
Your tracking list is empty




NASA's NSSDC Master Catalog

Two Line Element Set (TLE):
1 42878U 17042BF  17322.95771875 +.00003459 +00000-0 +10480-3 0  9994
2 42878 096.9953 225.2455 0013935 135.5304 224.7062 15.34685682019370
Source of the keplerian elements: AFSPC